SQ9PDE-13 Weather Reports


time (UTC)temp
C
wind
direction
speed
KPH
gust
KPH
rain 1hr
cm
rain 24hr
cm
rain mn
cm
humidity
%
barometer
mb
20260905195629 16 0.0 0.0 0.00 0.00 0.00 57 1019.9
20260905195129 16 0.0 0.0 0.00 0.00 0.00 57 1019.9
20260905194628 16 0.0 0.0 0.00 0.00 0.00 57 1019.9
20260905194128 16 0.0 0.0 0.00 0.00 0.00 58 1019.8
20260905193627 16 0.0 0.0 0.00 0.00 0.00 58 1019.8
20260905193126 16 0.0 0.0 0.00 0.00 0.00 58 1019.8
20260905192626 16 0.0 0.0 0.00 0.00 0.00 60 1019.8
20260905192125 16 0.0 0.0 0.00 0.00 0.00 60 1019.8
20260905191625 16 0.0 0.0 0.00 0.00 0.00 60 1019.7
20260905191124 16 0.0 0.0 0.00 0.00 0.00 60 1019.7
20260905190624 16 0.0 0.0 0.00 0.00 0.00 60 1019.7
20260905190123 16 0.0 0.0 0.00 0.00 0.00 61 1019.6
20260905185623 16 0.0 0.0 0.00 0.00 0.00 60 1019.6
20260905185122 16 0.0 0.0 0.00 0.00 0.00 60 1019.5
20260905184622 16 0.0 0.0 0.00 0.00 0.00 59 1019.5
20260905184121 16 0.0 0.0 0.00 0.00 0.00 59 1019.4
20260905183621 16 0.0 0.0 0.00 0.00 0.00 59 1019.3
20260905183120 16 0.0 0.0 0.00 0.00 0.00 59 1019.2
20260905182637 17 0.0 0.0 0.00 0.00 0.00 58 1019.1
20260905182136 17 0.0 0.0 0.00 0.00 0.00 58 1019.1
20260905181636 17 0.0 0.0 0.00 0.00 0.00 57 1019.0
20260905181135 17 0.0 0.0 0.00 0.00 0.00 56 1019.0
20260905180635 17 0.0 0.0 0.00 0.00 0.00 56 1018.9
20260905180619 17 0.0 0.0 0.00 0.00 0.00 55 1018.9
20260905180134 17 0.0 0.0 0.00 0.00 0.00 55 1018.9
20260905175634 17 0.0 0.0 0.00 0.00 0.00 55 1018.8
20260905175133 17 0.0 0.0 0.00 0.00 0.00 55 1018.7
20260905174801 17 0.0 0.0 0.00 0.00 0.00 55 1018.7
20260905174632 17 0.0 0.0 0.00 0.00 0.00 55 1018.7
20260905174132 18 0.0 0.0 0.00 0.00 0.00 55 1018.6
20260905173631 18 0.0 0.0 0.00 0.00 0.00 55 1018.5
20260905173131 18 0.0 0.0 0.00 0.00 0.00 55 1018.6
20260905172630 18 0.0 0.0 0.00 0.00 0.00 55 1018.6
20260905172130 18 0.0 0.0 0.00 0.00 0.00 55 1018.5
20260905171629 18 0.0 0.0 0.00 0.00 0.00 55 1018.5
20260905171129 18 0.0 0.0 0.00 0.00 0.00 55 1018.4
20260905170628 18 0.0 0.0 0.00 0.00 0.00 55 1018.4
20260905170128 18 0.0 0.0 0.00 0.00 0.00 55 1018.4
20260905165627 18 0.0 0.0 0.00 0.00 0.00 55 1018.3
20260905164107 18 0.0 0.0 0.00 0.00 0.00 53 1018.1
20260905163606 18 0.0 0.0 0.00 0.00 0.00 52 1018.1
20260905163106 19 0.0 0.0 0.00 0.00 0.00 52 1017.9
20260905162605 19 0.0 0.0 0.00 0.00 0.00 53 1017.9
20260905162105 19 0.0 0.0 0.00 0.00 0.00 52 1017.9
20260905161604 19 0.0 0.0 0.00 0.00 0.00 52 1017.9
20260905161104 19 0.0 0.0 0.00 0.00 0.00 51 1017.7
20260905160603 19 0.0 0.0 0.00 0.00 0.00 51 1017.7
20260905155602 19 0.0 0.0 0.00 0.00 0.00 51 1017.6
20260905155102 19 0.0 0.0 0.00 0.00 0.00 50 1017.6
20260905154601 20 0.0 0.0 0.00 0.00 0.00 51 1017.5
20260905154101 20 0.0 0.0 0.00 0.00 0.00 50 1017.5
20260905153600 20 0.0 0.0 0.00 0.00 0.00 50 1017.5
20260905153059 20 0.0 0.0 0.00 0.00 0.00 49 1017.5
20260905152559 20 0.0 0.0 0.00 0.00 0.00 49 1017.4
20260905152058 20 0.0 0.0 0.00 0.00 0.00 48 1017.2
20260905151558 20 0.0 0.0 0.00 0.00 0.00 48 1017.3
20260905151058 20 0.0 0.0 0.00 0.00 0.00 48 1017.2
20260905150557 20 0.0 0.0 0.00 0.00 0.00 48 1017.3
20260905150056 20 0.0 0.0 0.00 0.00 0.00 48 1017.3
20260905145556 20 0.0 0.0 0.00 0.00 0.00 49 1017.2
20260905145055 20 0.0 0.0 0.00 0.00 0.00 49 1017.2
20260905144555 20 0.0 0.0 0.00 0.00 0.00 49 1017.0
20260905144054 20 0.0 0.0 0.00 0.00 0.00 48 1016.9
20260905143554 20 0.0 0.0 0.00 0.00 0.00 48 1017.0
20260905143053 20 0.0 0.0 0.00 0.00 0.00 48 1017.0
20260905142553 20 0.0 0.0 0.00 0.00 0.00 48 1016.9
20260905142052 21 0.0 0.0 0.00 0.00 0.00 48 1016.9
20260905141552 20 0.0 0.0 0.00 0.00 0.00 49 1017.0
20260905141052 21 0.0 0.0 0.00 0.00 0.00 48 1017.0
20260905140551 20 0.0 0.0 0.00 0.00 0.00 48 1017.1
20260905140050 21 0.0 0.0 0.00 0.00 0.00 48 1017.1
20260905135549 20 0.0 0.0 0.00 0.00 0.00 47 1017.0
20260905135049 21 0.0 0.0 0.00 0.00 0.00 47 1017.0
20260905134549 21 0.0 0.0 0.00 0.00 0.00 46 1017.0
20260905134048 21 0.0 0.0 0.00 0.00 0.00 46 1017.0
20260905133547 21 0.0 0.0 0.00 0.00 0.00 45 1016.9
20260905121539 21 0.0 0.0 0.00 0.00 0.00 45 1017.2
20260905121251 22 0.0 0.0 0.00 0.00 0.00 42 1017.1
20260905121213 22 0.0 0.0 0.00 0.00 0.00 42 1017.1
20260905121038 22 0.0 0.0 0.00 0.00 0.00 42 1017.1
20260905120538 21 0.0 0.0 0.00 0.00 0.00 41 1017.2
20260905120037 21 0.0 0.0 0.00 0.00 0.00 41 1017.3
20260905115537 20 0.0 0.0 0.00 0.00 0.00 44 1017.3
20260905115036 21 0.0 0.0 0.00 0.00 0.00 43 1017.2
20260905114536 21 0.0 0.0 0.00 0.00 0.00 41 1017.2
20260905114035 21 0.0 0.0 0.00 0.00 0.00 41 1017.2
20260905113535 21 0.0 0.0 0.00 0.00 0.00 42 1017.1
20260905113034 21 0.0 0.0 0.00 0.00 0.00 40 1017.1
20260905112534 21 0.0 0.0 0.00 0.00 0.00 44 1017.1
20260905112033 21 0.0 0.0 0.00 0.00 0.00 46 1017.2
20260905111533 21 0.0 0.0 0.00 0.00 0.00 47 1017.2
20260905111033 21 0.0 0.0 0.00 0.00 0.00 49 1017.1
20260905110532 20 0.0 0.0 0.00 0.00 0.00 51 1017.4
20260905110031 20 0.0 0.0 0.00 0.00 0.00 52 1017.3
20260905105531 20 0.0 0.0 0.00 0.00 0.00 50 1017.2
20260905105111 22 0.0 0.0 0.00 0.00 0.00 47 1017.0
20260905105030 22 0.0 0.0 0.00 0.00 0.00 47 1017.0
20260905104530 22 0.0 0.0 0.00 0.00 0.00 47 1016.9
20260905104029 22 0.0 0.0 0.00 0.00 0.00 47 1017.1
20260905103529 22 0.0 0.0 0.00 0.00 0.00 48 1017.0
20260905103028 21 0.0 0.0 0.00 0.00 0.00 48 1017.1
20260905102528 22 0.0 0.0 0.00 0.00 0.00 49 1017.1
20260905101527 20 0.0 0.0 0.00 0.00 0.00 53 1017.4
20260905101026 20 0.0 0.0 0.00 0.00 0.00 55 1017.4
20260905100526 21 0.0 0.0 0.00 0.00 0.00 52 1017.1
20260905100025 23 0.0 0.0 0.00 0.00 0.00 48 1016.9
20260905095524 23 0.0 0.0 0.00 0.00 0.00 48 1016.9
20260905095024 23 0.0 0.0 0.00 0.00 0.00 49 1017.0
20260905094523 23 0.0 0.0 0.00 0.00 0.00 50 1017.0
20260905094023 22 0.0 0.0 0.00 0.00 0.00 53 1017.0
20260905093522 22 0.0 0.0 0.00 0.00 0.00 52 1017.2
20260905093342 22 0.0 0.0 0.00 0.00 0.00 53 1017.3
20260905092842 19 0.0 0.0 0.00 0.00 0.00 59 1017.6
20260905092341 22 0.0 0.0 0.00 0.00 0.00 51 1017.1
20260905091841 23 0.0 0.0 0.00 0.00 0.00 53 1017.2
20260905091340 22 0.0 0.0 0.00 0.00 0.00 57 1017.4
20260905090840 20 0.0 0.0 0.00 0.00 0.00 62 1017.6
20260905090339 18 0.0 0.0 0.00 0.00 0.00 67 1018.1
20260905085905 18 0.0 0.0 0.00 0.00 0.00 66 1018.0
20260905085405 17 0.0 0.0 0.00 0.00 0.00 66 1017.9
20260905084904 18 0.0 0.0 0.00 0.00 0.00 65 1017.7
20260905084404 18 0.0 0.0 0.00 0.00 0.00 66 1017.9
20260905083903 18 0.0 0.0 0.00 0.00 0.00 67 1018.0
20260905083403 18 0.0 0.0 0.00 0.00 0.00 66 1017.9
20260905082902 18 0.0 0.0 0.00 0.00 0.00 66 1018.0
20260905082402 18 0.0 0.0 0.00 0.00 0.00 66 1018.0
20260905081901 18 0.0 0.0 0.00 0.00 0.00 65 1017.8
20260905081401 18 0.0 0.0 0.00 0.00 0.00 65 1018.0
20260905080900 21 0.0 0.0 0.00 0.00 0.00 59 1017.6
20260905080400 18 0.0 0.0 0.00 0.00 0.00 66 1018.0
20260905075859 21 0.0 0.0 0.00 0.00 0.00 60 1017.7
20260905075359 22 0.0 0.0 0.00 0.00 0.00 60 1017.7
20260905074858 18 0.0 0.0 0.00 0.00 0.00 67 1018.0
20260905074357 20 0.0 0.0 0.00 0.00 0.00 65 1017.8
20260905073857 17 0.0 0.0 0.00 0.00 0.00 72 1018.2
20260905073356 17 0.0 0.0 0.00 0.00 0.00 74 1018.1
20260905072856 16 0.0 0.0 0.00 0.00 0.00 77 1018.1
20260905072356 16 0.0 0.0 0.00 0.00 0.00 77 1018.1
20260905071855 15 0.0 0.0 0.00 0.00 0.00 79 1018.2
20260905071354 15 0.0 0.0 0.00 0.00 0.00 80 1018.2
20260905070854 15 0.0 0.0 0.00 0.00 0.00 80 1017.9
20260905070353 15 0.0 0.0 0.00 0.00 0.00 80 1017.8
20260905065853 15 0.0 0.0 0.00 0.00 0.00 81 1017.9
20260905065350 15 0.0 0.0 0.00 0.00 0.00 82 1017.9
20260905064850 15 0.0 0.0 0.00 0.00 0.00 82 1018.0
20260905064349 15 0.0 0.0 0.00 0.00 0.00 82 1017.9
20260905063849 15 0.0 0.0 0.00 0.00 0.00 81 1017.8
20260905063348 15 0.0 0.0 0.00 0.00 0.00 82 1017.8
20260905062847 15 0.0 0.0 0.00 0.00 0.00 82 1017.5
20260905062347 15 0.0 0.0 0.00 0.00 0.00 82 1017.5
20260905061846 15 0.0 0.0 0.00 0.00 0.00 83 1017.5
20260905061346 15 0.0 0.0 0.00 0.00 0.00 84 1017.7
20260905060846 14 0.0 0.0 0.00 0.00 0.00 84 1017.8
20260905060345 14 0.0 0.0 0.00 0.00 0.00 85 1017.7
20260905055845 14 0.0 0.0 0.00 0.00 0.00 85 1017.6
20260905055344 14 0.0 0.0 0.00 0.00 0.00 85 1017.5
20260905054843 14 0.0 0.0 0.00 0.00 0.00 85 1017.6
20260905054343 14 0.0 0.0 0.00 0.00 0.00 86 1017.4
20260905053843 14 0.0 0.0 0.00 0.00 0.00 86 1017.5
20260905053443 14 0.0 0.0 0.00 0.00 0.00 87 1017.3
20260905053342 14 0.0 0.0 0.00 0.00 0.00 87 1017.3
20260905052841 14 0.0 0.0 0.00 0.00 0.00 87 1017.2
20260905052341 14 0.0 0.0 0.00 0.00 0.00 88 1017.2
20260905051840 14 0.0 0.0 0.00 0.00 0.00 87 1017.0
20260905051340 14 0.0 0.0 0.00 0.00 0.00 87 1017.1
20260905050839 14 0.0 0.0 0.00 0.00 0.00 87 1017.1
20260905045838 14 0.0 0.0 0.00 0.00 0.00 86 1016.9
20260905045434 15 0.0 0.0 0.00 0.00 0.00 86 1016.7
20260905045337 15 0.0 0.0 0.00 0.00 0.00 86 1016.7
20260905044837 15 0.0 0.0 0.00 0.00 0.00 86 1016.5
20260905044336 15 0.0 0.0 0.00 0.00 0.00 86 1016.4
20260905043335 15 0.0 0.0 0.00 0.00 0.00 86 1016.5
20260905042835 15 0.0 0.0 0.00 0.00 0.00 87 1016.4
20260905042601 15 0.0 0.0 0.00 0.00 0.00 87 1016.2
20260905042334 15 0.0 0.0 0.00 0.00 0.00 87 1016.2
20260905041834 15 0.0 0.0 0.00 0.00 0.00 88 1016.3
20260905041333 15 0.0 0.0 0.00 0.00 0.00 88 1016.3
20260905040833 15 0.0 0.0 0.00 0.00 0.00 88 1016.5
20260905040332 15 0.0 0.0 0.00 0.00 0.00 88 1016.5
20260905035832 15 0.0 0.0 0.00 0.00 0.00 88 1016.1
20260905035331 15 0.0 0.0 0.00 0.00 0.00 88 1016.0
20260905034831 15 0.0 0.0 0.00 0.00 0.00 88 1015.7
20260905034330 15 0.0 0.0 0.00 0.00 0.00 87 1015.9
20260905033830 15 0.0 0.0 0.00 0.00 0.00 87 1015.8
20260905033329 15 0.0 0.0 0.00 0.00 0.00 87 1015.4
20260905032829 15 0.0 0.0 0.00 0.00 0.00 87 1015.3
20260905032328 15 0.0 0.0 0.00 0.00 0.00 87 1015.2
20260905031827 15 0.0 0.0 0.00 0.00 0.00 86 1015.2
20260905031327 15 0.0 0.0 0.00 0.00 0.00 87 1015.1
20260905030826 15 0.0 0.0 0.00 0.00 0.00 87 1015.0
20260905030326 15 0.0 0.0 0.00 0.00 0.00 86 1014.9
20260905025826 15 0.0 0.0 0.00 0.00 0.00 86 1014.9
20260905025325 15 0.0 0.0 0.00 0.00 0.00 86 1014.9
20260905024824 15 0.0 0.0 0.00 0.00 0.00 86 1015.0
20260905024324 15 0.0 0.0 0.00 0.00 0.00 86 1015.1
20260905023823 15 0.0 0.0 0.00 0.00 0.00 86 1015.2
20260905023323 15 0.0 0.0 0.00 0.00 0.00 86 1014.9
20260905022822 15 0.0 0.0 0.00 0.00 0.00 86 1015.1
20260905022322 15 0.0 0.0 0.00 0.00 0.00 86 1015.2
20260905021821 15 0.0 0.0 0.00 0.00 0.00 85 1015.2
20260905021321 15 0.0 0.0 0.00 0.00 0.00 85 1015.0
20260905020820 15 0.0 0.0 0.00 0.00 0.00 85 1015.1
20260905020320 15 0.0 0.0 0.00 0.00 0.00 85 1014.9
20260905015819 15 0.0 0.0 0.00 0.00 0.00 85 1014.8
20260905015319 15 0.0 0.0 0.00 0.00 0.00 86 1014.9
20260905014818 15 0.0 0.0 0.00 0.00 0.00 87 1014.7
20260905014318 15 0.0 0.0 0.00 0.00 0.00 87 1014.6
20260905013817 15 0.0 0.0 0.00 0.00 0.00 87 1014.4
20260905013316 15 0.0 0.0 0.00 0.00 0.00 87 1014.5
20260905012816 15 0.0 0.0 0.00 0.00 0.00 87 1014.8
20260905012315 15 0.0 0.0 0.00 0.00 0.00 87 1014.7
20260905011815 15 0.0 0.0 0.00 0.00 0.00 87 1014.6
20260905011314 15 0.0 0.0 0.00 0.00 0.00 86 1014.7
20260905010814 15 0.0 0.0 0.00 0.00 0.00 86 1014.6
20260905010313 15 0.0 0.0 0.00 0.00 0.00 86 1014.7
20260905005813 15 0.0 0.0 0.00 0.00 0.00 85 1014.5
20260905005312 15 0.0 0.0 0.00 0.00 0.00 84 1014.5
20260905004812 16 0.0 0.0 0.00 0.00 0.00 81 1014.6
20260905004311 16 0.0 0.0 0.00 0.00 0.00 80 1014.4
20260905003919 16 0.0 0.0 0.00 0.00 0.00 79 1014.1
20260905003811 16 0.0 0.0 0.00 0.00 0.00 79 1014.1
20260905003452 16 0.0 0.0 0.00 0.00 0.00 77 1014.0
20260905003310 16 0.0 0.0 0.00 0.00 0.00 77 1014.0
20260905002810 16 0.0 0.0 0.00 0.00 0.00 76 1013.8
20260905002309 16 0.0 0.0 0.00 0.00 0.00 76 1014.0
20260905001809 16 0.0 0.0 0.00 0.00 0.00 75 1014.0
20260905001308 16 0.0 0.0 0.00 0.00 0.00 75 1013.9
20260905000808 17 0.0 0.0 0.00 0.00 0.00 74 1013.7
20260905000307 17 0.0 0.0 0.00 0.00 0.00 73 1013.9
20260904235806 17 0.0 0.0 0.00 0.00 0.00 72 1013.8
20260904235306 17 0.0 0.0 0.00 0.00 0.00 69 1013.8
20260904234805 18 0.0 0.0 0.00 0.00 0.00 66 1013.7
20260904234305 18 0.0 0.0 0.00 0.00 0.00 66 1013.3
20260904233804 18 0.0 0.0 0.00 0.00 0.00 67 1013.4
20260904233304 18 0.0 0.0 0.00 0.00 0.00 66 1013.2
20260904232803 18 0.0 0.0 0.00 0.00 0.00 63 1013.1
20260904232306 18 0.0 0.0 0.00 0.00 0.00 63 1013.1
20260904231802 18 0.0 0.0 0.00 0.00 0.00 62 1012.7
20260904231302 18 0.0 0.0 0.00 0.00 0.00 63 1012.9
20260904230801 18 0.0 0.0 0.00 0.00 0.00 63 1012.8
20260904230301 19 0.0 0.0 0.00 0.00 0.00 62 1012.6
20260904225800 19 0.0 0.0 0.00 0.00 0.00 62 1012.8
20260904225300 19 0.0 0.0 0.00 0.00 0.00 64 1012.5
20260904224759 20 0.0 0.0 0.00 0.00 0.00 65 1012.4
20260904224259 20 0.0 0.0 0.00 0.00 0.00 65 1012.3
20260904223758 20 0.0 0.0 0.00 0.00 0.00 64 1012.3
20260904223258 20 0.0 0.0 0.00 0.00 0.00 63 1012.0
20260904222757 20 0.0 0.0 0.00 0.00 0.00 64 1011.9
20260904222257 20 0.0 0.0 0.00 0.00 0.00 66 1011.8
20260904221756 20 0.0 0.0 0.00 0.00 0.00 66 1011.6
20260904221240 20 0.0 0.0 0.00 0.00 0.00 65 1011.5
20260904220740 21 0.0 0.0 0.00 0.00 0.00 65 1011.5
20260904220239 21 0.0 0.0 0.00 0.00 0.00 66 1011.4
20260904215739 21 0.0 0.0 0.00 0.00 0.00 65 1011.1
20260904215238 21 0.0 0.0 0.00 0.00 0.00 64 1011.0
20260904214738 22 0.0 0.0 0.00 0.00 0.00 64 1010.9
20260904214237 22 0.0 0.0 0.00 0.00 0.00 63 1010.8
20260904213737 22 0.0 0.0 0.00 0.00 0.00 62 1010.6
20260904213236 22 0.0 0.0 0.00 0.00 0.00 61 1010.4
20260904212735 22 0.0 0.0 0.00 0.00 0.00 61 1010.4
20260904212235 22 0.0 0.0 0.00 0.00 0.00 59 1009.6
20260904211734 22 0.0 0.0 0.00 0.00 0.00 59 1009.0
20260904211234 22 0.0 0.0 0.00 0.00 0.00 59 1009.2
20260904210733 22 0.0 0.0 0.00 0.00 0.00 59 1009.1
20260904210233 22 0.0 0.0 0.00 0.00 0.00 59 1009.2
20260904205732 22 0.0 0.0 0.00 0.00 0.00 60 1009.3
20260904205232 22 0.0 0.0 0.00 0.00 0.00 60 1009.3
20260904204731 22 0.0 0.0 0.00 0.00 0.00 60 1009.3
20260904203730 22 0.0 0.0 0.00 0.00 0.00 61 1009.3
20260904203230 22 0.0 0.0 0.00 0.00 0.00 61 1009.3
20260904202729 22 0.0 0.0 0.00 0.00 0.00 61 1009.4
20260904202229 22 0.0 0.0 0.00 0.00 0.00 61 1009.5
20260904201728 21 0.0 0.0 0.00 0.00 0.00 62 1009.4
20260904201228 21 0.0 0.0 0.00 0.00 0.00 62 1009.3
20260904200727 22 0.0 0.0 0.00 0.00 0.00 62 1009.5
20260904200227 21 0.0 0.0 0.00 0.00 0.00 62 1009.7